Overview Statistics Trail Chart Weather Telemetry Raw packets
 

This is the latest recevied weather packets stored in our database for station/object ALANSN-2. If no packets are shown the sender has not sent any weather packets the latest 10 day(s).

<< 105 106 107 108 109 110 111 >>
Time Temp. Humidity Pressure Rain* Wind** Luminosity Snow
1787769720 23.33° C 85% 1019.2 hPa 0 mm - 87 W/m² -
1787769420 23.33° C 84% 1019.3 hPa 0 mm - 122 W/m² -
1787769120 23.33° C 84% 1019.3 hPa 0 mm - 134 W/m² -
1787768820 23.33° C 84% 1019.4 hPa 0 mm - 169 W/m² -
1787768521 23.33° C 84% 1019.4 hPa 0 mm - 475 W/m² -
1787768220 23.33° C 85% 1019.4 hPa 0 mm - 684 W/m² -
1787767920 23.33° C 84% 1019.7 hPa 0 mm - 484 W/m² -
1787767620 22.78° C 85% 1019.7 hPa 0 mm - 455 W/m² -
1787767320 22.78° C 86% 1019.8 hPa 0 mm - 750 W/m² -
1787767025 22.78° C 86% 1020 hPa 0 mm - 320 W/m² -
1787766720 22.22° C 87% 1020 hPa 0 mm - 245 W/m² -
1787766420 22.22° C 87% 1020.3 hPa 0 mm - 251 W/m² -
1787766120 22.22° C 86% 1020.1 hPa 0 mm - 338 W/m² -
1787765820 22.22° C 87% 1020.2 hPa 0 mm - 219 W/m² -
1787765520 22.22° C 87% 1020.2 hPa 0 mm - 219 W/m² -
1787765220 22.22° C 87% 1020.1 hPa 0 mm - 691 W/m² -
1787764920 22.22° C 88% 1020.2 hPa 0 mm - 688 W/m² -
1787764620 22.22° C 88% 1020.2 hPa 0 mm - 688 W/m² -
1787764320 21.67° C 88% 1020.4 hPa 0 mm - 244 W/m² -
1787764021 21.67° C 89% 1020.3 hPa 0 mm - 131 W/m² -
1787763720 21.67° C 89% 1020.3 hPa 0 mm - 131 W/m² -
1787763421 21.11° C 88% 1020.5 hPa 0 mm - 140 W/m² -
1787763120 21.11° C 90% 1020.5 hPa 0 mm - 141 W/m² -
1787762820 21.11° C 90% 1020.5 hPa 0 mm - 141 W/m² -
1787762520 21.11° C 89% 1020.5 hPa 0 mm - 81 W/m² -

* Rain latest hour (hover to see other rain measurements)
** Current wind speed in m/s (hover to see current wind gust speed)